Terminal Aerodrome Forecast
Issued by NWS

Home | Current Version | Previous Version | Text Only | Print | Product List | Glossary On
Versions: 1 2 3 4 5 6 7 8 9 10 11 12 13 14 15 16 17 18 19 20
000
FTUS43 KGRR 201100
TAFJXN
TAF
KJXN 201140Z 2012/2112 VRB03KT P6SM BKN021
     FM210300 20003KT 6SM BR OVC030=

USA.gov is the U.S. government's official web portal to all federal, state and local government web resources and services.